owner,sensor,date,latitude,longitude,air_pressure(mBar),qcFlag 
TABS,ioos:station:wmo:42046:1,2006-02-01T00:00:00Z,27.8903,-94.0367,1016.86,11111222 
TABS,ioos:station:wmo:42046:1,2006-02-01T00:30:00Z,27.8903,-94.0367,1016.53,11111222 
TABS,ioos:station:wmo:42046:1,2006-02-01T01:00:00Z,27.8903,-94.0367,1016.24,11111222 
TABS,ioos:station:wmo:42046:1,2006-02-01T01:30:00Z,27.8903,-94.0367,1016.01,11111222 
TABS,ioos:station:wmo:42046:1,2006-02-01T02:00:00Z,27.8903,-94.0367,1016.02,11111222 
TABS,ioos:station:wmo:42046:1,2006-02-01T02:30:00Z,27.8903,-94.0367,1016.06,11111222 
TABS,ioos:station:wmo:42046:1,2006-02-01T03:00:00Z,27.8903,-94.0367,1015.96,11111222 
TABS,ioos:station:wmo:42046:1,2006-02-01T03:30:00Z,27.8903,-94.0367,1015.88,11111222 
TABS,ioos:station:wmo:42046:1,2006-02-01T04:00:00Z,27.8903,-94.0367,1015.55,11111222 
TABS,ioos:station:wmo:42046:1,2006-02-01T04:30:00Z,27.8903,-94.0367,1015.21,11111222 
TABS,ioos:station:wmo:42046:1,2006-02-01T05:00:00Z,27.8903,-94.0367,1014.94,11111222 
TABS,ioos:station:wmo:42046:1,2006-02-01T05:30:00Z,27.8903,-94.0367,1014.45,11111222 
TABS,ioos:station:wmo:42046:1,2006-02-01T06:00:00Z,27.8903,-94.0367,1014.25,11111222 
TABS,ioos:station:wmo:42046:1,2006-02-01T06:30:00Z,27.8903,-94.0367,1013.87,11111222 
TABS,ioos:station:wmo:42046:1,2006-02-01T07:00:00Z,27.8903,-94.0367,1013.98,11111222 
TABS,ioos:station:wmo:42046:1,2006-02-01T07:30:00Z,27.8903,-94.0367,1013.63,11111222 
TABS,ioos:station:wmo:42046:1,2006-02-01T08:00:00Z,27.8903,-94.0367,1013.25,11111222 
TABS,ioos:station:wmo:42046:1,2006-02-01T08:30:00Z,27.8903,-94.0367,1012.92,11111222 
TABS,ioos:station:wmo:42046:1,2006-02-01T09:00:00Z,27.8903,-94.0367,1012.51,11111222 
TABS,ioos:station:wmo:42046:1,2006-02-01T09:30:00Z,27.8903,-94.0367,1012.23,11111222 
TABS,ioos:station:wmo:42046:1,2006-02-01T10:00:00Z,27.8903,-94.0367,1011.85,11111222 
TABS,ioos:station:wmo:42046:1,2006-02-01T10:30:00Z,27.8903,-94.0367,1011.7,11111222 
TABS,ioos:station:wmo:42046:1,2006-02-01T11:00:00Z,27.8903,-94.0367,1011.56,11111222 
TABS,ioos:station:wmo:42046:1,2006-02-01T11:30:00Z,27.8903,-94.0367,1011.54,11111222 
TABS,ioos:station:wmo:42046:1,2006-02-01T12:00:00Z,27.8903,-94.0367,1011.64,11111222 
TABS,ioos:station:wmo:42046:1,2006-02-01T12:30:00Z,27.8903,-94.0367,1011.45,11111222 
TABS,ioos:station:wmo:42046:1,2006-02-01T13:00:00Z,27.8903,-94.0367,1011.66,11111222 
TABS,ioos:station:wmo:42046:1,2006-02-01T13:30:00Z,27.8903,-94.0367,1011.47,11111222 
TABS,ioos:station:wmo:42046:1,2006-02-01T14:00:00Z,27.8903,-94.0367,1011.62,11111222 
TABS,ioos:station:wmo:42046:1,2006-02-01T14:30:00Z,27.8903,-94.0367,1011.64,11111222 
TABS,ioos:station:wmo:42046:1,2006-02-01T15:00:00Z,27.8903,-94.0367,1011.82,11111222 
TABS,ioos:station:wmo:42046:1,2006-02-01T15:30:00Z,27.8903,-94.0367,1012.17,11111222 
TABS,ioos:station:wmo:42046:1,2006-02-01T16:00:00Z,27.8903,-94.0367,1012.16,11111222 
TABS,ioos:station:wmo:42046:1,2006-02-01T16:30:00Z,27.8903,-94.0367,1011.82,11111222 
TABS,ioos:station:wmo:42046:1,2006-02-01T17:00:00Z,27.8903,-94.0367,1011.29,11111222 
TABS,ioos:station:wmo:42046:1,2006-02-01T17:30:00Z,27.8903,-94.0367,1010.88,11111222 
TABS,ioos:station:wmo:42046:1,2006-02-01T18:00:00Z,27.8903,-94.0367,1010.33,11111222 
TABS,ioos:station:wmo:42046:1,2006-02-01T18:30:00Z,27.8903,-94.0367,1009.58,11111222 
TABS,ioos:station:wmo:42046:1,2006-02-01T19:00:00Z,27.8903,-94.0367,1008.84,11111222 
TABS,ioos:station:wmo:42046:1,2006-02-01T19:30:00Z,27.8903,-94.0367,1008.24,11111222 
TABS,ioos:station:wmo:42046:1,2006-02-01T20:00:00Z,27.8903,-94.0367,1008.35,11111222 
TABS,ioos:station:wmo:42046:1,2006-02-01T20:30:00Z,27.8903,-94.0367,1007.94,11111222 
TABS,ioos:station:wmo:42046:1,2006-02-01T21:00:00Z,27.8903,-94.0367,1007.6,11111222 
TABS,ioos:station:wmo:42046:1,2006-02-01T21:30:00Z,27.8903,-94.0367,1007.28,11111222 
TABS,ioos:station:wmo:42046:1,2006-02-01T22:00:00Z,27.8903,-94.0367,1006.8,11111222 
TABS,ioos:station:wmo:42046:1,2006-02-01T22:30:00Z,27.8903,-94.0367,1006.19,11111222 
TABS,ioos:station:wmo:42046:1,2006-02-01T23:00:00Z,27.8903,-94.0367,1005.85,11111222 
TABS,ioos:station:wmo:42046:1,2006-02-01T23:30:00Z,27.8903,-94.0367,1005.78,11111222 
TABS,ioos:station:wmo:42046:1,2006-02-02T00:00:00Z,27.8903,-94.0367,1005.61,11111222 
TABS,ioos:station:wmo:42046:1,2006-02-02T00:30:00Z,27.8903,-94.0367,1005.01,11111222 
TABS,ioos:station:wmo:42046:1,2006-02-02T01:00:00Z,27.8903,-94.0367,1005.44,11111222 
TABS,ioos:station:wmo:42046:1,2006-02-02T01:30:00Z,27.8903,-94.0367,1004.99,11111222 
TABS,ioos:station:wmo:42046:1,2006-02-02T02:00:00Z,27.8903,-94.0367,1005.32,11111222 
TABS,ioos:station:wmo:42046:1,2006-02-02T02:30:00Z,27.8903,-94.0367,1005.42,11111222 
TABS,ioos:station:wmo:42046:1,2006-02-02T03:00:00Z,27.8903,-94.0367,1005.63,11111222 
TABS,ioos:station:wmo:42046:1,2006-02-02T03:30:00Z,27.8903,-94.0367,1005.56,11111222 
TABS,ioos:station:wmo:42046:1,2006-02-02T04:00:00Z,27.8903,-94.0367,1005.3,11111222 
TABS,ioos:station:wmo:42046:1,2006-02-02T04:30:00Z,27.8903,-94.0367,1005.21,11111222 
TABS,ioos:station:wmo:42046:1,2006-02-02T05:00:00Z,27.8903,-94.0367,1005.17,11111222 
TABS,ioos:station:wmo:42046:1,2006-02-02T05:30:00Z,27.8903,-94.0367,1004.79,11111222 
TABS,ioos:station:wmo:42046:1,2006-02-02T06:00:00Z,27.8903,-94.0367,1004.62,11111222 
TABS,ioos:station:wmo:42046:1,2006-02-02T06:30:00Z,27.8903,-94.0367,1004.51,11111222 
TABS,ioos:station:wmo:42046:1,2006-02-02T07:00:00Z,27.8903,-94.0367,1004.79,11111222 
TABS,ioos:station:wmo:42046:1,2006-02-02T07:30:00Z,27.8903,-94.0367,1004.53,11111222 
TABS,ioos:station:wmo:42046:1,2006-02-02T08:00:00Z,27.8903,-94.0367,1004.58,11111222 
TABS,ioos:station:wmo:42046:1,2006-02-02T08:30:00Z,27.8903,-94.0367,1004.55,11111222 
TABS,ioos:station:wmo:42046:1,2006-02-02T09:00:00Z,27.8903,-94.0367,1004.51,11111222 
TABS,ioos:station:wmo:42046:1,2006-02-02T09:30:00Z,27.8903,-94.0367,1004.8,11111222 
TABS,ioos:station:wmo:42046:1,2006-02-02T10:00:00Z,27.8903,-94.0367,1004.71,11111222 
TABS,ioos:station:wmo:42046:1,2006-02-02T10:30:00Z,27.8903,-94.0367,1004.59,11111222 
TABS,ioos:station:wmo:42046:1,2006-02-02T11:00:00Z,27.8903,-94.0367,1004.75,11111222 
TABS,ioos:station:wmo:42046:1,2006-02-02T11:30:00Z,27.8903,-94.0367,1004.57,11111222 
TABS,ioos:station:wmo:42046:1,2006-02-02T12:00:00Z,27.8903,-94.0367,1004.83,11111222 
TABS,ioos:station:wmo:42046:1,2006-02-02T12:30:00Z,27.8903,-94.0367,1004.95,11111222 
TABS,ioos:station:wmo:42046:1,2006-02-02T13:00:00Z,27.8903,-94.0367,1005.39,11111222 
TABS,ioos:station:wmo:42046:1,2006-02-02T13:30:00Z,27.8903,-94.0367,1005.21,11111222 
TABS,ioos:station:wmo:42046:1,2006-02-02T14:00:00Z,27.8903,-94.0367,1005.48,11111222 
TABS,ioos:station:wmo:42046:1,2006-02-02T14:30:00Z,27.8903,-94.0367,1005.51,11111222 
TABS,ioos:station:wmo:42046:1,2006-02-02T15:00:00Z,27.8903,-94.0367,1005.82,11111222 
TABS,ioos:station:wmo:42046:1,2006-02-02T15:30:00Z,27.8903,-94.0367,1005.88,11111222 
TABS,ioos:station:wmo:42046:1,2006-02-02T16:00:00Z,27.8903,-94.0367,1006.37,11111222 
TABS,ioos:station:wmo:42046:1,2006-02-02T16:30:00Z,27.8903,-94.0367,1006.42,11111222 
TABS,ioos:station:wmo:42046:1,2006-02-02T17:00:00Z,27.8903,-94.0367,1006.3,11111222 
TABS,ioos:station:wmo:42046:1,2006-02-02T17:30:00Z,27.8903,-94.0367,1006.04,11111222 
TABS,ioos:station:wmo:42046:1,2006-02-02T18:00:00Z,27.8903,-94.0367,1005.53,11111222 
TABS,ioos:station:wmo:42046:1,2006-02-02T18:30:00Z,27.8903,-94.0367,1004.89,11111222 
TABS,ioos:station:wmo:42046:1,2006-02-02T19:00:00Z,27.8903,-94.0367,1004.59,11111222 
TABS,ioos:station:wmo:42046:1,2006-02-02T19:30:00Z,27.8903,-94.0367,1004.34,11111222 
TABS,ioos:station:wmo:42046:1,2006-02-02T20:00:00Z,27.8903,-94.0367,1004.32,11111222 
TABS,ioos:station:wmo:42046:1,2006-02-02T20:30:00Z,27.8903,-94.0367,1004.1,11111222 
TABS,ioos:station:wmo:42046:1,2006-02-02T21:00:00Z,27.8903,-94.0367,1003.99,11111222 
TABS,ioos:station:wmo:42046:1,2006-02-02T21:30:00Z,27.8903,-94.0367,1003.77,11111222 
TABS,ioos:station:wmo:42046:1,2006-02-02T22:00:00Z,27.8903,-94.0367,1003.66,11111222 
TABS,ioos:station:wmo:42046:1,2006-02-02T22:30:00Z,27.8903,-94.0367,1003.73,11111222 
TABS,ioos:station:wmo:42046:1,2006-02-02T23:00:00Z,27.8903,-94.0367,1003.71,11111222 
TABS,ioos:station:wmo:42046:1,2006-02-02T23:30:00Z,27.8903,-94.0367,1003.82,11111222 
TABS,ioos:station:wmo:42046:1,2006-02-03T00:00:00Z,27.8903,-94.0367,1004.17,11111222 
TABS,ioos:station:wmo:42046:1,2006-02-03T00:30:00Z,27.8903,-94.0367,1004.32,11111222 
TABS,ioos:station:wmo:42046:1,2006-02-03T01:00:00Z,27.8903,-94.0367,1004.57,11111222 
TABS,ioos:station:wmo:42046:1,2006-02-03T01:30:00Z,27.8903,-94.0367,1004.84,11111222 
TABS,ioos:station:wmo:42046:1,2006-02-03T02:00:00Z,27.8903,-94.0367,1004.91,11111222 
TABS,ioos:station:wmo:42046:1,2006-02-03T02:30:00Z,27.8903,-94.0367,1005.08,11111222 
TABS,ioos:station:wmo:42046:1,2006-02-03T03:00:00Z,27.8903,-94.0367,1005.08,11111222 
TABS,ioos:station:wmo:42046:1,2006-02-03T03:30:00Z,27.8903,-94.0367,1005.44,11111222 
TABS,ioos:station:wmo:42046:1,2006-02-03T04:00:00Z,27.8903,-94.0367,1005.8,11111222 
TABS,ioos:station:wmo:42046:1,2006-02-03T04:30:00Z,27.8903,-94.0367,1006.11,11111222 
TABS,ioos:station:wmo:42046:1,2006-02-03T05:00:00Z,27.8903,-94.0367,1006.52,11111222 
TABS,ioos:station:wmo:42046:1,2006-02-03T05:30:00Z,27.8903,-94.0367,1006.5,11111222 
TABS,ioos:station:wmo:42046:1,2006-02-03T06:00:00Z,27.8903,-94.0367,1006.49,11111222 
TABS,ioos:station:wmo:42046:1,2006-02-03T06:30:00Z,27.8903,-94.0367,1006.31,11111222 
TABS,ioos:station:wmo:42046:1,2006-02-03T07:00:00Z,27.8903,-94.0367,1006.44,11111222 
TABS,ioos:station:wmo:42046:1,2006-02-03T07:30:00Z,27.8903,-94.0367,1006.37,11111222 
TABS,ioos:station:wmo:42046:1,2006-02-03T08:00:00Z,27.8903,-94.0367,1005.97,11111222 
TABS,ioos:station:wmo:42046:1,2006-02-03T08:30:00Z,27.8903,-94.0367,1005.91,11111222 
TABS,ioos:station:wmo:42046:1,2006-02-03T09:00:00Z,27.8903,-94.0367,1005.67,11111222 
TABS,ioos:station:wmo:42046:1,2006-02-03T09:30:00Z,27.8903,-94.0367,1005.41,11111222 
TABS,ioos:station:wmo:42046:1,2006-02-03T10:00:00Z,27.8903,-94.0367,1005.13,11111222 
TABS,ioos:station:wmo:42046:1,2006-02-03T10:30:00Z,27.8903,-94.0367,1005.25,11111222 
TABS,ioos:station:wmo:42046:1,2006-02-03T11:00:00Z,27.8903,-94.0367,1005.35,11111222 
TABS,ioos:station:wmo:42046:1,2006-02-03T11:30:00Z,27.8903,-94.0367,1005.44,11111222 
TABS,ioos:station:wmo:42046:1,2006-02-03T12:00:00Z,27.8903,-94.0367,1005.64,11111222 
TABS,ioos:station:wmo:42046:1,2006-02-03T12:30:00Z,27.8903,-94.0367,1005.62,11111222 
TABS,ioos:station:wmo:42046:1,2006-02-03T13:00:00Z,27.8903,-94.0367,1005.68,11111222 
TABS,ioos:station:wmo:42046:1,2006-02-03T13:30:00Z,27.8903,-94.0367,1006.4,11111222 
TABS,ioos:station:wmo:42046:1,2006-02-03T14:00:00Z,27.8903,-94.0367,1006.44,11111222 
TABS,ioos:station:wmo:42046:1,2006-02-03T14:30:00Z,27.8903,-94.0367,1006.32,11111222 
TABS,ioos:station:wmo:42046:1,2006-02-03T15:00:00Z,27.8903,-94.0367,1006.41,11111222 
TABS,ioos:station:wmo:42046:1,2006-02-03T15:30:00Z,27.8903,-94.0367,1006.84,11111222 
TABS,ioos:station:wmo:42046:1,2006-02-03T16:00:00Z,27.8903,-94.0367,1006.96,11111222 
TABS,ioos:station:wmo:42046:1,2006-02-03T16:30:00Z,27.8903,-94.0367,1006.87,11111222 
TABS,ioos:station:wmo:42046:1,2006-02-03T17:00:00Z,27.8903,-94.0367,1006.83,11111222 
TABS,ioos:station:wmo:42046:1,2006-02-03T17:30:00Z,27.8903,-94.0367,1006.39,11111222 
TABS,ioos:station:wmo:42046:1,2006-02-03T18:00:00Z,27.8903,-94.0367,1006.51,11111222 
TABS,ioos:station:wmo:42046:1,2006-02-03T18:30:00Z,27.8903,-94.0367,1005.96,11111222 
TABS,ioos:station:wmo:42046:1,2006-02-03T19:00:00Z,27.8903,-94.0367,1005.44,11111222 
TABS,ioos:station:wmo:42046:1,2006-02-03T19:30:00Z,27.8903,-94.0367,1004.92,11111222 
TABS,ioos:station:wmo:42046:1,2006-02-03T20:00:00Z,27.8903,-94.0367,1004.74,11111222 
TABS,ioos:station:wmo:42046:1,2006-02-03T20:30:00Z,27.8903,-94.0367,1004.56,11111222 
TABS,ioos:station:wmo:42046:1,2006-02-03T21:00:00Z,27.8903,-94.0367,1005.53,11111222 
TABS,ioos:station:wmo:42046:1,2006-02-03T21:30:00Z,27.8903,-94.0367,1005.36,11111222 
TABS,ioos:station:wmo:42046:1,2006-02-03T22:00:00Z,27.8903,-94.0367,1005.89,11111222 
TABS,ioos:station:wmo:42046:1,2006-02-03T22:30:00Z,27.8903,-94.0367,1006.18,11111222 
TABS,ioos:station:wmo:42046:1,2006-02-03T23:00:00Z,27.8903,-94.0367,1007.12,11111222 
TABS,ioos:station:wmo:42046:1,2006-02-03T23:30:00Z,27.8903,-94.0367,1007.84,11111222 
TABS,ioos:station:wmo:42046:1,2006-02-04T00:00:00Z,27.8903,-94.0367,1009.03,11111222 
TABS,ioos:station:wmo:42046:1,2006-02-04T00:30:00Z,27.8903,-94.0367,1010.5,11111222 
TABS,ioos:station:wmo:42046:1,2006-02-04T01:00:00Z,27.8903,-94.0367,1011.97,11111222 
TABS,ioos:station:wmo:42046:1,2006-02-04T01:30:00Z,27.8903,-94.0367,1012.58,11111222 
TABS,ioos:station:wmo:42046:1,2006-02-04T02:00:00Z,27.8903,-94.0367,1012.98,11111222 
TABS,ioos:station:wmo:42046:1,2006-02-04T02:30:00Z,27.8903,-94.0367,1014.03,11111222 
TABS,ioos:station:wmo:42046:1,2006-02-04T03:00:00Z,27.8903,-94.0367,1014.2,11111222 
TABS,ioos:station:wmo:42046:1,2006-02-04T03:30:00Z,27.8903,-94.0367,1015.15,11111222 
TABS,ioos:station:wmo:42046:1,2006-02-04T04:00:00Z,27.8903,-94.0367,1016.08,11111222 
TABS,ioos:station:wmo:42046:1,2006-02-04T04:30:00Z,27.8903,-94.0367,1016.66,11111222 
TABS,ioos:station:wmo:42046:1,2006-02-04T05:00:00Z,27.8903,-94.0367,1016.89,11111222 
TABS,ioos:station:wmo:42046:1,2006-02-04T05:30:00Z,27.8903,-94.0367,1017.49,11111222 
TABS,ioos:station:wmo:42046:1,2006-02-04T06:00:00Z,27.8903,-94.0367,1017.42,11111222 
TABS,ioos:station:wmo:42046:1,2006-02-04T06:30:00Z,27.8903,-94.0367,1018.31,11111222 
TABS,ioos:station:wmo:42046:1,2006-02-04T07:00:00Z,27.8903,-94.0367,1018.4,11111222 
TABS,ioos:station:wmo:42046:1,2006-02-04T07:30:00Z,27.8903,-94.0367,1018.57,11111222 
TABS,ioos:station:wmo:42046:1,2006-02-04T08:00:00Z,27.8903,-94.0367,1018.63,11111222 
TABS,ioos:station:wmo:42046:1,2006-02-04T08:30:00Z,27.8903,-94.0367,1018.54,11111222 
TABS,ioos:station:wmo:42046:1,2006-02-04T09:00:00Z,27.8903,-94.0367,1018.56,11111222 
TABS,ioos:station:wmo:42046:1,2006-02-04T09:30:00Z,27.8903,-94.0367,1018.68,11111222 
TABS,ioos:station:wmo:42046:1,2006-02-04T10:00:00Z,27.8903,-94.0367,1018.59,11111222 
TABS,ioos:station:wmo:42046:1,2006-02-04T10:30:00Z,27.8903,-94.0367,1018.82,11111222 
TABS,ioos:station:wmo:42046:1,2006-02-04T11:00:00Z,27.8903,-94.0367,1018.84,11111222 
TABS,ioos:station:wmo:42046:1,2006-02-04T11:30:00Z,27.8903,-94.0367,1019.11,11111222 
TABS,ioos:station:wmo:42046:1,2006-02-04T12:00:00Z,27.8903,-94.0367,1019.44,11111222 
TABS,ioos:station:wmo:42046:1,2006-02-04T12:30:00Z,27.8903,-94.0367,1019.75,11111222 
TABS,ioos:station:wmo:42046:1,2006-02-04T13:00:00Z,27.8903,-94.0367,1020.12,11111222 
TABS,ioos:station:wmo:42046:1,2006-02-04T13:30:00Z,27.8903,-94.0367,1020.57,11111222 
TABS,ioos:station:wmo:42046:1,2006-02-04T14:00:00Z,27.8903,-94.0367,1020.69,11111222 
TABS,ioos:station:wmo:42046:1,2006-02-04T14:30:00Z,27.8903,-94.0367,1020.92,11111222 
TABS,ioos:station:wmo:42046:1,2006-02-04T15:00:00Z,27.8903,-94.0367,1021.43,11111222 
TABS,ioos:station:wmo:42046:1,2006-02-04T15:30:00Z,27.8903,-94.0367,1021.71,11111222 
TABS,ioos:station:wmo:42046:1,2006-02-04T16:00:00Z,27.8903,-94.0367,1022.26,11111222 
TABS,ioos:station:wmo:42046:1,2006-02-04T16:30:00Z,27.8903,-94.0367,1022.19,11111222 
TABS,ioos:station:wmo:42046:1,2006-02-04T17:00:00Z,27.8903,-94.0367,1022.22,11111222 
TABS,ioos:station:wmo:42046:1,2006-02-04T17:30:00Z,27.8903,-94.0367,1022.17,11111222 
TABS,ioos:station:wmo:42046:1,2006-02-04T18:00:00Z,27.8903,-94.0367,1021.89,11111222 
TABS,ioos:station:wmo:42046:1,2006-02-04T18:30:00Z,27.8903,-94.0367,1021.42,11111222 
TABS,ioos:station:wmo:42046:1,2006-02-04T19:00:00Z,27.8903,-94.0367,1020.9,11111222 
TABS,ioos:station:wmo:42046:1,2006-02-04T19:30:00Z,27.8903,-94.0367,1020.38,11111222 
TABS,ioos:station:wmo:42046:1,2006-02-04T20:00:00Z,27.8903,-94.0367,1020.08,11111222 
TABS,ioos:station:wmo:42046:1,2006-02-04T20:30:00Z,27.8903,-94.0367,1019.84,11111222 
TABS,ioos:station:wmo:42046:1,2006-02-04T21:00:00Z,27.8903,-94.0367,1019.76,11111222 
TABS,ioos:station:wmo:42046:1,2006-02-04T21:30:00Z,27.8903,-94.0367,1019.57,11111222 
TABS,ioos:station:wmo:42046:1,2006-02-04T22:00:00Z,27.8903,-94.0367,1019.67,11111222 
TABS,ioos:station:wmo:42046:1,2006-02-04T22:30:00Z,27.8903,-94.0367,1019.6,11111222 
TABS,ioos:station:wmo:42046:1,2006-02-04T23:00:00Z,27.8903,-94.0367,1019.31,11111222 
TABS,ioos:station:wmo:42046:1,2006-02-04T23:30:00Z,27.8903,-94.0367,1019.08,11111222 
TABS,ioos:station:wmo:42046:1,2006-02-05T00:00:00Z,27.8903,-94.0367,1019.24,11111222 
TABS,ioos:station:wmo:42046:1,2006-02-05T00:30:00Z,27.8903,-94.0367,1019.18,11111222 
TABS,ioos:station:wmo:42046:1,2006-02-05T01:00:00Z,27.8903,-94.0367,1019.13,11111222 
TABS,ioos:station:wmo:42046:1,2006-02-05T01:30:00Z,27.8903,-94.0367,1019.31,11111222 
TABS,ioos:station:wmo:42046:1,2006-02-05T02:00:00Z,27.8903,-94.0367,1019.41,11111222 
TABS,ioos:station:wmo:42046:1,2006-02-05T02:30:00Z,27.8903,-94.0367,1019.35,11111222 
TABS,ioos:station:wmo:42046:1,2006-02-05T03:00:00Z,27.8903,-94.0367,1019.66,11111222 
TABS,ioos:station:wmo:42046:1,2006-02-05T03:30:00Z,27.8903,-94.0367,1019.82,11111222 
TABS,ioos:station:wmo:42046:1,2006-02-05T04:00:00Z,27.8903,-94.0367,1019.9,11111222 
TABS,ioos:station:wmo:42046:1,2006-02-05T04:30:00Z,27.8903,-94.0367,1019.97,11111222 
TABS,ioos:station:wmo:42046:1,2006-02-05T05:00:00Z,27.8903,-94.0367,1019.94,11111222 
TABS,ioos:station:wmo:42046:1,2006-02-05T05:30:00Z,27.8903,-94.0367,1019.81,11111222 
TABS,ioos:station:wmo:42046:1,2006-02-05T06:00:00Z,27.8903,-94.0367,1019.58,11111222 
TABS,ioos:station:wmo:42046:1,2006-02-05T06:30:00Z,27.8903,-94.0367,1019.46,11111222 
TABS,ioos:station:wmo:42046:1,2006-02-05T07:00:00Z,27.8903,-94.0367,1019.42,11111222 
TABS,ioos:station:wmo:42046:1,2006-02-05T07:30:00Z,27.8903,-94.0367,1019.45,11111222 
TABS,ioos:station:wmo:42046:1,2006-02-05T08:00:00Z,27.8903,-94.0367,1019.3,11111222 
TABS,ioos:station:wmo:42046:1,2006-02-05T08:30:00Z,27.8903,-94.0367,1019.18,11111222 
TABS,ioos:station:wmo:42046:1,2006-02-05T09:00:00Z,27.8903,-94.0367,1018.91,11111222 
TABS,ioos:station:wmo:42046:1,2006-02-05T09:30:00Z,27.8903,-94.0367,1018.76,11111222 
TABS,ioos:station:wmo:42046:1,2006-02-05T10:00:00Z,27.8903,-94.0367,1018.26,11111222 
TABS,ioos:station:wmo:42046:1,2006-02-05T10:30:00Z,27.8903,-94.0367,1018.41,11111222 
TABS,ioos:station:wmo:42046:1,2006-02-05T11:00:00Z,27.8903,-94.0367,1018.32,11111222 
TABS,ioos:station:wmo:42046:1,2006-02-05T11:30:00Z,27.8903,-94.0367,1018.51,11111222 
TABS,ioos:station:wmo:42046:1,2006-02-05T12:00:00Z,27.8903,-94.0367,1018.51,11111222 
TABS,ioos:station:wmo:42046:1,2006-02-05T12:30:00Z,27.8903,-94.0367,1018.47,11111222 
TABS,ioos:station:wmo:42046:1,2006-02-05T13:00:00Z,27.8903,-94.0367,1018.29,11111222 
TABS,ioos:station:wmo:42046:1,2006-02-05T13:30:00Z,27.8903,-94.0367,1018.38,11111222 
TABS,ioos:station:wmo:42046:1,2006-02-05T14:00:00Z,27.8903,-94.0367,1018.27,11111222 
TABS,ioos:station:wmo:42046:1,2006-02-05T14:30:00Z,27.8903,-94.0367,1018.31,11111222 
TABS,ioos:station:wmo:42046:1,2006-02-05T15:00:00Z,27.8903,-94.0367,1018.66,11111222 
TABS,ioos:station:wmo:42046:1,2006-02-05T15:30:00Z,27.8903,-94.0367,1018.58,11111222 
TABS,ioos:station:wmo:42046:1,2006-02-05T16:00:00Z,27.8903,-94.0367,1018.49,11111222 
TABS,ioos:station:wmo:42046:1,2006-02-05T16:30:00Z,27.8903,-94.0367,1018.36,11111222 
TABS,ioos:station:wmo:42046:1,2006-02-05T17:00:00Z,27.8903,-94.0367,1018.06,11111222 
TABS,ioos:station:wmo:42046:1,2006-02-05T17:30:00Z,27.8903,-94.0367,1017.6,11111222 
TABS,ioos:station:wmo:42046:1,2006-02-05T18:00:00Z,27.8903,-94.0367,1017.32,11111222 
TABS,ioos:station:wmo:42046:1,2006-02-05T18:30:00Z,27.8903,-94.0367,1016.84,11111222 
TABS,ioos:station:wmo:42046:1,2006-02-05T19:00:00Z,27.8903,-94.0367,1015.93,11111222 
TABS,ioos:station:wmo:42046:1,2006-02-05T19:30:00Z,27.8903,-94.0367,1015.66,11111222 
TABS,ioos:station:wmo:42046:1,2006-02-05T20:00:00Z,27.8903,-94.0367,1015.01,11111222 
TABS,ioos:station:wmo:42046:1,2006-02-05T20:30:00Z,27.8903,-94.0367,1014.39,11111222 
TABS,ioos:station:wmo:42046:1,2006-02-05T21:00:00Z,27.8903,-94.0367,1014.01,11111222 
TABS,ioos:station:wmo:42046:1,2006-02-05T21:30:00Z,27.8903,-94.0367,1013.42,11111222 
TABS,ioos:station:wmo:42046:1,2006-02-05T22:00:00Z,27.8903,-94.0367,1013.11,11111222 
TABS,ioos:station:wmo:42046:1,2006-02-05T22:30:00Z,27.8903,-94.0367,1013.03,11111222 
TABS,ioos:station:wmo:42046:1,2006-02-05T23:00:00Z,27.8903,-94.0367,1012.74,11111222 
TABS,ioos:station:wmo:42046:1,2006-02-05T23:30:00Z,27.8903,-94.0367,1012.74,11111222 
TABS,ioos:station:wmo:42046:1,2006-02-06T00:00:00Z,27.8903,-94.0367,1012.98,11111222 
TABS,ioos:station:wmo:42046:1,2006-02-06T00:30:00Z,27.8903,-94.0367,1013.42,11111222 
TABS,ioos:station:wmo:42046:1,2006-02-06T01:00:00Z,27.8903,-94.0367,1013.32,11111222 
TABS,ioos:station:wmo:42046:1,2006-02-06T01:30:00Z,27.8903,-94.0367,1013.37,11111222 
TABS,ioos:station:wmo:42046:1,2006-02-06T02:00:00Z,27.8903,-94.0367,1013.21,11111222 
TABS,ioos:station:wmo:42046:1,2006-02-06T02:30:00Z,27.8903,-94.0367,1013.41,11111222 
TABS,ioos:station:wmo:42046:1,2006-02-06T03:00:00Z,27.8903,-94.0367,1014.03,11111222 
TABS,ioos:station:wmo:42046:1,2006-02-06T03:30:00Z,27.8903,-94.0367,1014.03,11111222 
TABS,ioos:station:wmo:42046:1,2006-02-06T04:00:00Z,27.8903,-94.0367,1014.21,11111222 
TABS,ioos:station:wmo:42046:1,2006-02-06T04:30:00Z,27.8903,-94.0367,1013.86,11111222 
TABS,ioos:station:wmo:42046:1,2006-02-06T05:00:00Z,27.8903,-94.0367,1013.94,11111222 
TABS,ioos:station:wmo:42046:1,2006-02-06T05:30:00Z,27.8903,-94.0367,1014.27,11111222 
TABS,ioos:station:wmo:42046:1,2006-02-06T06:00:00Z,27.8903,-94.0367,1014.25,11111222 
TABS,ioos:station:wmo:42046:1,2006-02-06T06:30:00Z,27.8903,-94.0367,1014.25,11111222 
TABS,ioos:station:wmo:42046:1,2006-02-06T07:00:00Z,27.8903,-94.0367,1013.5,11111222 
TABS,ioos:station:wmo:42046:1,2006-02-06T07:30:00Z,27.8903,-94.0367,1013.42,11111222 
TABS,ioos:station:wmo:42046:1,2006-02-06T08:00:00Z,27.8903,-94.0367,1013.72,11111222 
TABS,ioos:station:wmo:42046:1,2006-02-06T08:30:00Z,27.8903,-94.0367,1013.26,11111222 
TABS,ioos:station:wmo:42046:1,2006-02-06T09:00:00Z,27.8903,-94.0367,1012.87,11111222 
TABS,ioos:station:wmo:42046:1,2006-02-06T09:30:00Z,27.8903,-94.0367,1012.63,11111222 
TABS,ioos:station:wmo:42046:1,2006-02-06T10:00:00Z,27.8903,-94.0367,1013.13,11111222 
TABS,ioos:station:wmo:42046:1,2006-02-06T10:30:00Z,27.8903,-94.0367,1013.04,11111222 
TABS,ioos:station:wmo:42046:1,2006-02-06T11:00:00Z,27.8903,-94.0367,1013.14,11111222 
TABS,ioos:station:wmo:42046:1,2006-02-06T11:30:00Z,27.8903,-94.0367,1013.31,11111222 
TABS,ioos:station:wmo:42046:1,2006-02-06T12:00:00Z,27.8903,-94.0367,1013.24,11111222 
TABS,ioos:station:wmo:42046:1,2006-02-06T12:30:00Z,27.8903,-94.0367,1013.87,11111222 
TABS,ioos:station:wmo:42046:1,2006-02-06T13:00:00Z,27.8903,-94.0367,1014.42,11111222 
TABS,ioos:station:wmo:42046:1,2006-02-06T13:30:00Z,27.8903,-94.0367,1015.76,11111222 
TABS,ioos:station:wmo:42046:1,2006-02-06T14:00:00Z,27.8903,-94.0367,1017.36,11111222 
TABS,ioos:station:wmo:42046:1,2006-02-06T14:30:00Z,27.8903,-94.0367,1017.52,11111222 
TABS,ioos:station:wmo:42046:1,2006-02-06T15:00:00Z,27.8903,-94.0367,1017.83,11111222 
TABS,ioos:station:wmo:42046:1,2006-02-06T15:30:00Z,27.8903,-94.0367,1018.24,11111222 
TABS,ioos:station:wmo:42046:1,2006-02-06T16:00:00Z,27.8903,-94.0367,1018.52,11111222 
TABS,ioos:station:wmo:42046:1,2006-02-06T16:30:00Z,27.8903,-94.0367,1018.59,11111222 
TABS,ioos:station:wmo:42046:1,2006-02-06T17:00:00Z,27.8903,-94.0367,1018.54,11111222 
TABS,ioos:station:wmo:42046:1,2006-02-06T17:30:00Z,27.8903,-94.0367,1018.59,11111222 
TABS,ioos:station:wmo:42046:1,2006-02-06T18:00:00Z,27.8903,-94.0367,1018.44,11111222 
TABS,ioos:station:wmo:42046:1,2006-02-06T18:30:00Z,27.8903,-94.0367,1017.96,11111222 